Volver al catálogo

STARLINK-34452

ActivoComunicacionesVLEO
NORAD 64425·PAYLOAD·🇺🇸 United States

Lanzado Jun 17, 2025 desde Vandenberg Space Force Base

Loading…

Próximos Pases (próximas 24 horas)

TLE

ActualizadoSource: CelesTrak SupGP

Época: Sep 14, 2026, 14:38 UTC

1 64425C 25129P   26257.61020833  .00031638  00000+0  11017-2 0  2574
2 64425  69.9995 316.5870 0003253 274.6127 103.9636 15.29529869    17

Sigue STARLINK-34452 en tiempo real con AllMySat

Download on the App Store